Terminal Aerodrome Forecast
Issued by NWS

Home | Current Version | Previous Version | Text Only | Print | Product List | Glossary On
Versions: 1 2 3 4 5 6 7 8 9 10 11 12 13 14 15 16 17 18 19 20 21 22 23 24 25 26 27 28 29 30
000
FTUS45 KSLC 232334
TAFENV
TAF
KENV 232334Z 2400/2424 22016G24KT P6SM FEW100 SCT200
     FM240400 30012KT P6SM FEW150
     FM240800 02008KT P6SM SKC
     FM241900 10006KT P6SM SKC
      AMD LTD TO CLD VIS AND WIND=

USA.gov is the U.S. government's official web portal to all federal, state and local government web resources and services.